Lubbock, TX

4:06 PM CST on December 05, 2019 (GMT -0600)
Lubbock International

Weather History for KLBB - May, 2019

Change the Weather History Date:

Saturday, May 25, 2019

  Actual Average Record
Temperature  
Mean Temperature 72 °F 72 °F  
Max Temperature 81 °F 86 °F 102 °F (2012)
Min Temperature 63 °F 59 °F 44 °F (1924)
Degree Days  
Heating Degree Days 0 1  
Month to date heating degree days 52 38  
Since 1 July heating degree days 3449 3375  
Cooling Degree Days 7 8  
Month to date cooling degree days 109 137  
Year to date cooling degree days 172 193  
Growing Degree Days 22 (Base 50)    
Moisture  
Dew Point 66 °F    
Average Humidity 88    
Maximum Humidity 100    
Minimum Humidity 62    
Precipitation  
Precipitation 0.02 in 0.09 in 1.22 in (2014)
Month to date precipitation 3.93 1.74  
Year to date precipitation 6.85 5.65  
Snow  
Snow 0.00 in 0.00 in T in (2000)
Month to date snowfall T 0.0  
Since 1 July snowfall 10.1 8.2  
Snow Depth 0.00 in    
Sea Level Pressure  
Sea Level Pressure 29.90 in    
Wind  
Wind Speed 13 mph ()    
Max Wind Speed 31 mph    
Max Gust Speed 37 mph    
Visibility 6.0 miles    
Events Rain , Thunderstorm    
T = Trace of Precipitation, MM = Missing Value Source: Averaged Metar Reports

Daily Weather History Graph

Daily Weather History Graph

Search for Another Location

Airport or City:

Astronomy

May. 25, 2019 Rise Set
Actual Time 6:40 AM CDT 8:48 PM CDT
Civil Twilight 6:12 AM CDT 9:16 PM CDT
Nautical Twilight 5:38 AM CDT 9:50 PM CDT
Astronomical Twilight 5:01 AM CDT 10:27 PM CDT
Moon 1:53 AM CDT (5/25) 12:37 PM CDT (5/25)
Length of Visible Light 15h 03m
Length of Day
14h 07m
Waning Gibbous, 59% of the Moon is Illuminated
May 25
Waning Gibbous
May 26
Last Quarter
Jun 3
New
Jun 10
First Quarter
Jun 17
Full

Hourly Weather History & Observations

Time (CDT) Temp. Heat Index Dew Point Humidity Pressure Visibility Wind Dir Wind Speed Gust Speed Precip Events Conditions
12:53 AM 64.0 °F - 61.0 °F 90% 29.86 in 9.0 mi East 9.2 mph - N/A   Mostly Cloudy
1:53 AM 63.0 °F - 61.0 °F 93% 29.86 in 7.0 mi East 10.4 mph - N/A   Mostly Cloudy
2:37 AM 64.0 °F - 62.1 °F 93% 29.96 in 6.0 mi ESE 11.5 mph - N/A   Mostly Cloudy
2:53 AM 64.0 °F - 62.1 °F 93% 29.85 in 6.0 mi ESE 11.5 mph - N/A   Mostly Cloudy
3:09 AM 64.0 °F - 63.0 °F 96% 29.95 in 5.0 mi ESE 12.7 mph - N/A   Overcast
3:53 AM 64.9 °F - 63.0 °F 93% 29.85 in 5.0 mi ESE 12.7 mph - N/A   Overcast
4:53 AM 64.9 °F - 64.0 °F 97% 29.84 in 5.0 mi SE 12.7 mph - N/A   Overcast
5:53 AM 66.0 °F - 64.9 °F 96% 29.86 in 4.0 mi SE 12.7 mph - N/A   Overcast
6:23 AM 66.0 °F - 64.9 °F 96% 29.97 in 5.0 mi SE 11.5 mph - N/A   Overcast
6:35 AM 66.0 °F - 64.9 °F 96% 29.98 in 5.0 mi SE 11.5 mph - N/A   Overcast
6:53 AM 66.0 °F - 64.9 °F 96% 29.87 in 4.0 mi SE 12.7 mph - N/A   Overcast
6:58 AM 66.0 °F - 64.9 °F 96% 29.98 in 4.0 mi SE 10.4 mph - N/A   Overcast
7:17 AM 66.0 °F - 64.9 °F 96% 29.99 in 4.0 mi SE 10.4 mph - N/A   Overcast
7:53 AM 66.9 °F - 64.9 °F 93% 29.90 in 3.0 mi SSE 12.7 mph - N/A   Overcast
8:27 AM 68.0 °F - 66.0 °F 93% 30.01 in 5.0 mi SSE 16.1 mph - N/A   Overcast
8:53 AM 68.0 °F - 66.0 °F 93% 29.90 in 4.0 mi SSE 18.4 mph - N/A   Overcast
9:53 AM 68.0 °F - 66.9 °F 96% 29.91 in 3.0 mi SSE 17.3 mph - N/A   Overcast
10:04 AM 69.1 °F - 66.9 °F 93% 30.01 in 2.5 mi SSE 15.0 mph - N/A   Overcast
10:36 AM 69.1 °F - 66.9 °F 93% 30.01 in 3.0 mi SSE 16.1 mph - N/A   Overcast
10:53 AM 69.1 °F - 66.9 °F 93% 29.91 in 4.0 mi SSE 17.3 mph - N/A   Overcast
11:38 AM 70.0 °F - 66.9 °F 90% 30.02 in 5.0 mi SSE 16.1 mph - N/A   Overcast
11:53 AM 70.0 °F - 66.9 °F 90% 29.91 in 5.0 mi SSE 15.0 mph - 0.00 in Rain Light Rain
12:39 PM 69.1 °F - 68.0 °F 96% 30.02 in 2.0 mi SSE 13.8 mph - 0.01 in Rain Light Rain
12:53 PM 69.1 °F - 68.0 °F 96% 29.91 in 3.0 mi SSE 17.3 mph - 0.01 in Rain Light Rain
1:06 PM 69.1 °F - 68.0 °F 96% 30.01 in 2.5 mi SSE 13.8 mph - 0.00 in Rain Light Rain
1:38 PM 69.1 °F - 68.0 °F 96% 29.99 in 3.0 mi SSE 18.4 mph 24.2 mph 0.01 in   Overcast
1:53 PM 70.0 °F - 68.0 °F 93% 29.87 in 4.0 mi SSE 16.1 mph 23.0 mph 0.01 in   Overcast
2:19 PM 71.1 °F - 68.0 °F 90% 29.97 in 6.0 mi SSE 20.7 mph - N/A   Overcast
2:53 PM 73.0 °F - 69.1 °F 87% 29.84 in 8.0 mi SE 16.1 mph - N/A   Overcast
3:06 PM 73.9 °F - 69.1 °F 85% 29.96 in 8.0 mi SE 15.0 mph - N/A   Overcast
3:53 PM 77.0 °F - 69.1 °F 76% 29.81 in 9.0 mi SSE 19.6 mph - 0.00 in   Overcast
4:04 PM 78.1 °F - 69.1 °F 74% 29.92 in 9.0 mi SSE 21.9 mph 29.9 mph N/A   Mostly Cloudy
4:53 PM 80.1 °F 82.7 °F 68.0 °F 67% 29.77 in 9.0 mi SSE 23.0 mph 35.7 mph N/A   Mostly Cloudy
5:32 PM 77.0 °F - 68.0 °F 74% 29.89 in 9.0 mi SSE 23.0 mph 29.9 mph N/A Thunderstorm Thunderstorm
5:53 PM 75.9 °F - 68.0 °F 76% 29.75 in 9.0 mi SSE 25.3 mph 34.5 mph 0.00 in Rain , Thunderstorm Light Thunderstorms and Rain
6:25 PM 77.0 °F - 66.9 °F 71% 29.92 in 10.0 mi South 18.4 mph 26.5 mph 0.00 in   Mostly Cloudy
6:53 PM 80.1 °F 82.1 °F 66.0 °F 62% 29.78 in 10.0 mi South 28.8 mph 34.5 mph 0.00 in   Scattered Clouds
7:53 PM 78.1 °F - 66.0 °F 66% 29.78 in 8.0 mi South 17.3 mph - N/A   Partly Cloudy
8:53 PM 75.0 °F - 66.0 °F 73% 29.81 in 8.0 mi SSE 17.3 mph - N/A   Partly Cloudy
9:53 PM 73.0 °F - 66.0 °F 79% 29.81 in 10.0 mi SSE 16.1 mph - N/A   Partly Cloudy
10:53 PM 71.1 °F - 66.0 °F 84% 29.82 in 10.0 mi SSE 16.1 mph - N/A   Clear
11:53 PM 71.1 °F - 64.9 °F 81% 29.83 in 9.0 mi South 12.7 mph - N/A   Clear